Meteo pe oră la Bolshie Lipovichi

Astăzi, 18 Mai, Marţi

Timp Temperatura Precipitaţii Vânt Presiune Umiditate
00:00 +13°C° 0.8 mm 3 m/s 735 mmHg 98%
01:00 +12°C° 0.8 mm 3 m/s 735 mmHg 98%
02:00 +13°C° 0.8 mm 2 m/s 734 mmHg 99%
03:00 +14°C° 0.1 mm 2 m/s 734 mmHg 98%
04:00 +13°C° 0.1 mm 3 m/s 734 mmHg 98%
05:00 +13°C° 0.1 mm 3 m/s 734 mmHg 98%
06:00 +14°C° 0 mm 3 m/s 734 mmHg 97%
07:00 +14°C° 0 mm 3 m/s 735 mmHg 96%
08:00 +14°C° 0 mm 3 m/s 735 mmHg 95%
09:00 +16°C° 0 mm 3 m/s 735 mmHg 92%
10:00 +17°C° 0 mm 4 m/s 736 mmHg 89%
11:00 +17°C° 0 mm 4 m/s 736 mmHg 86%
12:00 +18°C° 0 mm 4 m/s 736 mmHg 81%
13:00 +19°C° 0 mm 3 m/s 736 mmHg 77%
14:00 +20°C° 0 mm 3 m/s 736 mmHg 72%
15:00 +20°C° 0.4 mm 3 m/s 735 mmHg 74%
16:00 +19°C° 0.4 mm 2 m/s 735 mmHg 76%
17:00 +19°C° 0.4 mm 2 m/s 735 mmHg 78%
18:00 +18°C° 0.8 mm 2 m/s 735 mmHg 83%
19:00 +17°C° 0.8 mm 2 m/s 735 mmHg 89%
20:00 +15°C° 0.8 mm 2 m/s 735 mmHg 94%
21:00 +15°C° 0.4 mm 1 m/s 734 mmHg 95%
22:00 +15°C° 0.4 mm 1 m/s 734 mmHg 96%
23:00 +15°C° 0.4 mm 1 m/s 734 mmHg 97%

Mâine, 19 Mai, Miercuri

Timp Temperatura Precipitaţii Vânt Presiune Umiditate
00:00 +14°C° 1.1 mm 1 m/s 734 mmHg 97%
01:00 +14°C° 1.1 mm 2 m/s 734 mmHg 98%
02:00 +14°C° 1.1 mm 2 m/s 734 mmHg 98%
03:00 +14°C° 1.1 mm 1 m/s 734 mmHg 98%
04:00 +14°C° 1.1 mm 1 m/s 734 mmHg 98%
05:00 +14°C° 1.1 mm 1 m/s 735 mmHg 97%
06:00 +14°C° 0 mm 1 m/s 735 mmHg 95%
07:00 +15°C° 0 mm 1 m/s 735 mmHg 92%
08:00 +16°C° 0 mm 1 m/s 735 mmHg 89%
09:00 +16°C° 0.4 mm 2 m/s 736 mmHg 89%
10:00 +16°C° 0.4 mm 2 m/s 736 mmHg 88%
11:00 +16°C° 0.4 mm 3 m/s 736 mmHg 88%
12:00 +16°C° 0.4 mm 3 m/s 736 mmHg 88%
13:00 +14°C° 0.4 mm 3 m/s 737 mmHg 89%
14:00 +14°C° 0.4 mm 3 m/s 737 mmHg 90%
15:00 +13°C° 0.1 mm 3 m/s 737 mmHg 90%
16:00 +13°C° 0.1 mm 4 m/s 738 mmHg 91%
17:00 +12°C° 0.1 mm 4 m/s 738 mmHg 91%
18:00 +12°C° 0 mm 4 m/s 738 mmHg 92%
19:00 +11°C° 0 mm 4 m/s 738 mmHg 93%
20:00 +11°C° 0 mm 3 m/s 739 mmHg 94%
21:00 +11°C° 0.2 mm 3 m/s 738 mmHg 94%
22:00 +10°C° 0.2 mm 3 m/s 738 mmHg 95%
23:00 +10°C° 0.2 mm 3 m/s 738 mmHg 96%

Poimâine, 20 Mai, Joi

Timp Temperatura Precipitaţii Vânt Presiune Umiditate
00:00 +10°C° 1.2 mm 4 m/s 738 mmHg 96%
01:00 +9°C° 1.2 mm 5 m/s 738 mmHg 96%
02:00 +9°C° 1.2 mm 5 m/s 737 mmHg 97%
03:00 +9°C° 3.2 mm 6 m/s 737 mmHg 97%
04:00 +8°C° 3.2 mm 6 m/s 737 mmHg 97%
05:00 +8°C° 3.2 mm 6 m/s 737 mmHg 97%
06:00 +8°C° 3.6 mm 7 m/s 736 mmHg 97%
07:00 +8°C° 3.6 mm 7 m/s 736 mmHg 96%
08:00 +7°C° 3.6 mm 8 m/s 736 mmHg 96%
09:00 +7°C° 2.2 mm 8 m/s 736 mmHg 96%
10:00 +7°C° 2.2 mm 8 m/s 736 mmHg 96%
11:00 +6°C° 2.2 mm 9 m/s 735 mmHg 95%
12:00 +6°C° 2.5 mm 9 m/s 735 mmHg 95%
13:00 +6°C° 2.5 mm 9 m/s 735 mmHg 95%
14:00 +6°C° 2.5 mm 9 m/s 735 mmHg 95%
15:00 +6°C° 3.4 mm 9 m/s 736 mmHg 95%
16:00 +6°C° 3.4 mm 10 m/s 736 mmHg 94%
17:00 +6°C° 3.4 mm 10 m/s 736 mmHg 94%
18:00 +6°C° 1.7 mm 10 m/s 737 mmHg 93%
19:00 +6°C° 1.7 mm 10 m/s 737 mmHg 93%
20:00 +6°C° 1.7 mm 10 m/s 737 mmHg 92%
21:00 +6°C° 0.8 mm 9 m/s 738 mmHg 92%
22:00 +6°C° 0.8 mm 8 m/s 738 mmHg 93%
23:00 +6°C° 0.8 mm 7 m/s 738 mmHg 93%

21 Mai, Vineri

Timp Temperatura Precipitaţii Vânt Presiune Umiditate
00:00 +6°C° 0.3 mm 7 m/s 739 mmHg 92%
01:00 +6°C° 0.3 mm 7 m/s 739 mmHg 92%
02:00 +8°C° 0.3 mm 7 m/s 739 mmHg 92%
03:00 +6°C° 0 mm 7 m/s 740 mmHg 91%
04:00 +5°C° 0 mm 6 m/s 741 mmHg 91%
05:00 +4°C° 0 mm 6 m/s 741 mmHg 90%
06:00 +5°C° 0 mm 6 m/s 742 mmHg 86%
07:00 +8°C° 0 mm 6 m/s 742 mmHg 82%
08:00 +9°C° 0 mm 6 m/s 743 mmHg 77%
09:00 +10°C° 0 mm 6 m/s 743 mmHg 71%
10:00 +11°C° 0 mm 6 m/s 743 mmHg 65%
11:00 +13°C° 0 mm 5 m/s 744 mmHg 58%
12:00 +14°C° 0 mm 5 m/s 744 mmHg 57%
13:00 +15°C° 0 mm 5 m/s 744 mmHg 55%
14:00 +15°C° 0 mm 5 m/s 744 mmHg 54%
15:00 +15°C° 0 mm 5 m/s 744 mmHg 56%
16:00 +15°C° 0 mm 4 m/s 744 mmHg 59%
17:00 +15°C° 0 mm 4 m/s 745 mmHg 62%
18:00 +13°C° 0 mm 3 m/s 745 mmHg 68%
19:00 +11°C° 0 mm 3 m/s 745 mmHg 74%
20:00 +9°C° 0 mm 3 m/s 746 mmHg 81%
21:00 +8°C° 0 mm 2 m/s 746 mmHg 81%
22:00 +7°C° 0 mm 2 m/s 746 mmHg 82%
23:00 +7°C° 0 mm 2 m/s 746 mmHg 82%

22 Mai, Sâmbătă

Timp Temperatura Precipitaţii Vânt Presiune Umiditate
00:00 +6°C° 0 mm 2 m/s 747 mmHg 82%
01:00 +6°C° 0 mm 2 m/s 747 mmHg 82%
02:00 +6°C° 0 mm 1 m/s 747 mmHg 81%
03:00 +7°C° 0 mm 1 m/s 747 mmHg 81%
04:00 +7°C° 0 mm 1 m/s 747 mmHg 80%
05:00 +7°C° 0 mm 1 m/s 747 mmHg 80%
06:00 +9°C° 0 mm 1 m/s 747 mmHg 75%
07:00 +10°C° 0 mm 2 m/s 747 mmHg 71%
08:00 +13°C° 0 mm 2 m/s 748 mmHg 66%
09:00 +13°C° 0 mm 3 m/s 747 mmHg 63%
10:00 +14°C° 0 mm 3 m/s 747 mmHg 60%
11:00 +15°C° 0 mm 4 m/s 747 mmHg 57%
12:00 +17°C° 0 mm 4 m/s 747 mmHg 55%
13:00 +17°C° 0 mm 4 m/s 747 mmHg 54%
14:00 +18°C° 0 mm 4 m/s 746 mmHg 52%
15:00 +18°C° 0 mm 3 m/s 746 mmHg 55%
16:00 +18°C° 0 mm 3 m/s 746 mmHg 58%
17:00 +18°C° 0 mm 3 m/s 746 mmHg 62%
18:00 +16°C° 0 mm 3 m/s 745 mmHg 67%
19:00 +13°C° 0 mm 3 m/s 745 mmHg 73%
20:00 +12°C° 0 mm 3 m/s 745 mmHg 79%
21:00 +11°C° 0 mm 3 m/s 745 mmHg 80%
22:00 +10°C° 0 mm 3 m/s 745 mmHg 82%
23:00 +10°C° 0 mm 3 m/s 745 mmHg 83%

23 Mai, Duminică

Timp Temperatura Precipitaţii Vânt Presiune Umiditate
00:00 +9°C° 0 mm 3 m/s 745 mmHg 84%
01:00 +9°C° 0 mm 3 m/s 744 mmHg 85%
02:00 +9°C° 0 mm 3 m/s 744 mmHg 85%
03:00 +9°C° 0 mm 3 m/s 744 mmHg 86%
04:00 +9°C° 0 mm 3 m/s 744 mmHg 86%
05:00 +10°C° 0 mm 3 m/s 743 mmHg 86%
06:00 +11°C° 0 mm 3 m/s 743 mmHg 84%
07:00 +13°C° 0 mm 4 m/s 743 mmHg 82%
08:00 +14°C° 0 mm 5 m/s 742 mmHg 80%
09:00 +14°C° 0.4 mm 5 m/s 742 mmHg 79%
10:00 +15°C° 0.4 mm 5 m/s 741 mmHg 78%
11:00 +15°C° 0.4 mm 5 m/s 741 mmHg 78%
12:00 +14°C° 0.9 mm 5 m/s 741 mmHg 83%
13:00 +13°C° 0.9 mm 5 m/s 740 mmHg 89%
14:00 +12°C° 0.9 mm 5 m/s 740 mmHg 94%
15:00 +13°C° 0.7 mm 5 m/s 740 mmHg 91%
16:00 +13°C° 0.7 mm 5 m/s 741 mmHg 87%
17:00 +14°C° 0.7 mm 5 m/s 741 mmHg 84%
18:00 +13°C° 0.2 mm 5 m/s 742 mmHg 85%
19:00 +12°C° 0.2 mm 5 m/s 742 mmHg 87%
20:00 +11°C° 0.2 mm 4 m/s 742 mmHg 88%
21:00 +10°C° 0 mm 4 m/s 743 mmHg 90%
22:00 +10°C° 0 mm 4 m/s 743 mmHg 91%
23:00 +8°C° 0 mm 4 m/s 744 mmHg 93%
Arată mai mult

Formular de consimțământ

Meteoprog și furnizorii noștri de servicii pot stoca și accesa date personale, precum cookies, identificatori de dispozitiv sau alte tehnologii similare pe dispozitivul dumneavoastră și procesa astfel de date pentru a personaliza conținutul și reclamele, dar și pentru a oferi caracteristici de social media și pentru a analiza traficul.

  • Stocarea și/sau accesarea informațiilor pe dispozitivul dumneavoastră

    Cookies, identificatori de dispozitiv sau alte informații pot fi stocate sau accesate pe dispozitiv în scopurile indicate mai sus.

  • Reclame și conținut personalizat, evaluarea reclamelor și a conținutului, informații despre audiențe și dezvoltarea produselor

    Reclamele și conținutul pot fi personalizate pe baza unui profil. Pot fi adăugate date suplimentare pentru a personaliza mai bine reclamele și conținutul. Performanța reclamelor și conținutului poate fi măsurată. Pot fi obținute informații despre utilizatorii care au văzut reclamele și conținutul. Aceste date pot fi utilizate pentru a dezvolta sau îmbunătăți experiența utilizatorilor, sistemele și software-ul.

Dând clic pe ‘Sunt de acord’, permiteți utilizarea cookie-urilor menționate, a identificatorilor de dispozitiv, balizelor web sau altor tehnologii similare. Setările pot fi modificate din browser-ul dispozitivului dumneavoastră.

În anumite scopuri, interesele legitime pot prima asupra consimțământului. Puteți citi mai multe informații în acest sens în Politica privind Confidențialitatea Datelor și Cookie.